Location: Bailleul
(50.3375°N, 2.8513°E)
Time: 07:59:46
(UTC+00:00)

Meteor 2-10 Rocket - Pass Details

Date: 16 June 2021
Orbit: 733 x 885 km, 81.2° (Epoch: 26 July)

Event Time Altitude Azimuth Distance (km) Brightness Sun altitude
Rises 23:08:41 0° 341° (NNW) 3,244 8.5 -15.7°
Reaches altitude 10° 23:11:12 10° 334° (NNW) 2,294 7.2 -15.8°
Maximum altitude 23:15:54 38° 268° (W) 1,128 4.4 -15.9°
Enters shadow 23:18:57 19° 211° (SSW) 1,704 4.8 -16.0°
